Regional Weather Roundup
Issued by NWS Cleveland, OH

Home | Current Version | Previous Version | Graphics & Text | Print | Product List | Glossary On
Versions: 1 2 3 4 5 6 7 8 9 10 11 12 13 14 15 16 17 18 19 20 21 22 23 24 25 26 27 28 29 30 31 32 33 34 35 36 37 38 39 40 41 42 43 44 45 46 47 48 49 50
000
ASUS41 KCLE 200900
RWRCLE
OHIO REGIONAL WEATHER ROUNDUP
NATIONAL WEATHER SERVICE WILMINGTON, OH
400 AM EST SAT DEC 20 2014

NOTE: "FAIR" INDICATES FEW OR NO CLOUDS BELOW 12,000 FEET WITH NO
SIGNIFICANT WEATHER AND/OR OBSTRUCTIONS TO VISIBILITY.

OHZ001>008-015>018-024>027-034-035-043-044-201000-
   NORTHWEST OHIO

CITY           SKY/WX    TMP DP  RH WIND       PRES   REMARKS
DEFIANCE       CLOUDY    28  24  85 CALM      30.29S
FINDLAY        CLOUDY    30  22  72 SE3       30.28R
TOLEDO EXPRESS CLOUDY    29  20  69 CALM      30.29R
TOLEDO METCALF CLOUDY    30  24  78 CALM      30.30R
LIMA           CLOUDY    31  23  72 SE3       30.27S
$$

OHZ009>014-019>023-028>033-038-089-201000-
   NORTHEAST OHIO

CITY           SKY/WX    TMP DP  RH WIND       PRES   REMARKS
CLE-HOPKINS    CLOUDY    28  20  71 S6        30.30S WCI  22
CLE-LAKEFRONT  CLOUDY    31  21  66 SW5       30.28S WCI  26
CUY CO. ARPT   NOT AVBL
LORAIN-ELYRIA  CLOUDY    29  21  72 CALM      30.28F
ASHTABULA      CLOUDY    29  21  72 SW5       30.27R WCI  24
AKRON-CANTON   CLOUDY    28  20  71 N3        30.25S
WOOSTER        NOT AVBL
MANSFIELD      CLOUDY    27  21  78 S3        30.26R
YOUNGSTOWN     CLOUDY    27  19  72 SW5       30.25S WCI  22
$$

OHZ042-051>053-060>062-070>072-077>081-201000-
  SOUTHWEST OHIO

CITY           SKY/WX    TMP DP  RH WIND       PRES   REMARKS
CINC-COVINGTON CLOUDY    30  21  69 CALM      30.26S
CINC-LUNKEN    CLOUDY    30  24  78 N3        30.29F
HAMILTON       CLOUDY    31  24  75 NE3       30.29S
DAYTON         NOT AVBL
WRIGHT-PAT AFB CLOUDY    29  23  78 NE3       30.27F
DAYTON GENERAL CLOUDY    29  23  78 CALM      30.26S
WILMINGTON     CLOUDY    28  22  78 SE3       30.25F
$$

OHZ036-037-039>041-045>050-054>059-063>069-073>076-082>088-201000-
  CENTRAL AND SOUTHEAST OHIO

CITY           SKY/WX    TMP DP  RH WIND       PRES   REMARKS
COLUMBUS       CLOUDY    29  22  75 CALM      30.28F
OSU AIRPORT    CLOUDY    29  22  75 CALM      30.27F
BOLTON FIELD   NOT AVBL
RICKENBACK AFB NOT AVBL
NEWARK         CLOUDY    30  23  75 CALM      30.27S
MARION         CLOUDY    29  21  72 S3        30.28R
LANCASTER      CLOUDY    40  24  53 S3        30.28S
ZANESVILLE     CLOUDY    29  22  75 CALM      30.27R
NEW PHILLY     CLOUDY    31  19  61 CALM      30.28R
$$


USA.gov is the U.S. government's official web portal to all federal, state and local government web resources and services.